{"data":{"norad_id":53026,"epoch":"2026-05-25T04:03:29.553120Z","epoch_age_seconds":54439,"freshness":"FRESH","line1":"1 53026U 22076AS  26145.16909205 -.00000903  00000+0 -38630-4 0  9990","line2":"2 53026  53.2127 100.6841 0001518  67.1165 292.9987 15.08841705214539","mean_motion":15.08841705,"eccentricity":0.0001518,"inclination_deg":53.2127,"raan_deg":100.6841,"arg_perigee_deg":67.1165,"mean_anomaly_deg":292.9987,"bstar":-3.863e-5,"rev_number":21453,"period_min":95.437446832768,"perigee_km":538.68804401417,"apogee_km":540.78831091805,"semimajor_km":6917.8751774661,"source":"CELESTRAK","updated_at":"2026-05-25T13:38:17.282204Z"}}